Theta_e
332 336 337 346 346 345 346 346 348 347 347 347 347 347 348 348 349 348 349 348 348 348 348 348 348 347 346 345 344 344 343 343 344 345 346 346 347 346 346 345 345 346 345 344 344 344 343 341 340 340 340 340 340 340 340 340 339 338 337 334 335 336 337 337 337 337 337 338 337 336 337 337 337 334 337 339 339 336 334 333 333 332 329 331 335
333 334 337 342 346 345 346 346 347 346 346 345 345 347 347 347 349 348 348 348 348 348 347 346 345 344 344 343 342 342 342 342 342 342 343 343 344 344 344 344 343 343 342 341 340 340 341 341 340 341 341 340 340 340 340 341 340 337 335 334 333 335 335 335 335 336 336 337 337 334 333 336 337 336 335 335 335 335 334 332 333 330 329 333 333
335 335 337 342 346 346 347 347 347 346 345 344 344 344 344 345 347 348 347 347 347 346 345 344 343 342 343 343 342 342 344 344 344 344 344 343 342 343 343 344 343 343 342 342 342 341 339 339 340 340 340 340 340 341 341 340 336 336 335 334 334 334 334 334 335 335 335 335 335 334 335 335 335 336 335 334 334 333 332 331 332 332 328 334 333
335 335 338 343 346 346 347 346 346 345 344 343 343 343 343 344 344 346 345 346 346 345 344 343 343 341 341 341 342 342 342 342 341 341 339 338 342 341 341 341 341 340 339 339 339 339 338 339 340 340 339 339 339 340 339 339 337 336 334 333 334 334 333 334 334 335 334 334 333 331 330 324 330 334 335 334 333 333 332 332 331 332 334 334 334
336 339 341 342 343 346 347 346 346 345 344 343 342 341 342 342 341 341 342 345 344 343 343 343 342 340 340 342 343 343 344 342 340 341 341 342 343 342 341 339 338 339 340 340 339 338 338 338 338 340 339 339 339 339 339 338 337 336 334 334 334 333 332 334 334 334 334 333 332 328 321 323 325 332 334 334 334 333 333 332 332 331 333 334 335
338 340 340 341 341 343 346 346 345 344 343 342 341 340 340 340 340 340 341 340 342 342 342 342 340 339 343 344 345 346 346 343 342 342 343 344 343 340 339 340 341 338 337 338 338 338 338 339 339 339 339 339 339 338 337 337 336 335 334 334 333 332 333 334 334 333 332 331 329 322 321 322 327 329 334 333 333 334 332 332 332 333 333 334 334
339 339 340 339 340 342 345 346 344 343 342 341 340 339 340 341 341 340 340 340 340 340 341 341 341 341 344 345 346 347 346 343 341 339 339 339 340 342 342 341 340 339 339 339 339 338 338 338 338 339 339 339 338 337 337 336 336 334 335 335 333 333 335 335 335 334 333 328 324 324 322 322 324 328 333 332 333 333 333 332 333 332 332 332 332
338 339 339 339 339 343 345 346 344 342 341 340 339 340 340 340 339 339 341 340 339 339 340 340 339 340 345 347 347 347 347 345 343 342 342 342 341 341 340 337 336 337 338 339 337 338 338 338 339 338 339 339 338 338 336 335 335 335 335 334 334 334 335 335 333 332 331 325 325 327 328 326 325 327 333 332 332 331 332 332 332 332 332 331 333
339 339 339 338 338 343 344 344 343 343 342 341 341 340 340 340 339 340 340 339 340 340 340 340 340 340 344 347 347 345 344 344 344 344 341 340 342 340 339 338 338 337 336 337 337 337 337 337 337 338 338 339 338 337 336 336 335 335 334 334 334 335 335 334 332 329 326 323 324 326 330 330 328 326 332 332 332 331 329 331 332 331 331 338 332
338 338 338 337 337 341 343 343 344 342 341 340 340 339 339 340 340 340 339 338 339 340 339 340 340 340 342 345 345 345 344 345 344 343 341 339 338 337 336 336 337 338 337 337 338 337 337 337 337 337 337 337 337 337 337 336 336 336 334 335 335 335 334 332 329 327 322 323 324 326 332 337 330 328 331 332 332 330 330 331 333 332 333 336 335
338 339 338 337 336 341 344 345 344 343 341 339 339 339 339 339 340 340 339 338 338 340 339 339 340 341 343 344 344 345 345 344 343 343 341 340 340 340 339 338 337 336 337 336 337 337 337 338 337 337 337 337 336 336 336 336 336 335 334 335 335 334 333 330 326 319 319 320 323 325 330 335 331 329 334 334 332 331 334 335 336 334 333 336 336
338 339 337 336 343 340 343 343 343 343 341 339 339 339 339 338 338 337 337 338 340 340 340 341 341 340 344 345 344 344 344 343 342 341 340 339 338 338 338 338 338 336 336 337 337 337 337 338 337 336 336 336 336 336 335 335 335 335 334 334 333 332 330 328 320 318 317 318 320 324 326 328 329 334 334 334 333 332 333 333 334 336 336 336 335
338 339 336 337 338 340 342 343 343 343 341 339 339 339 338 337 338 337 336 339 341 341 341 341 341 341 340 343 343 343 343 343 343 341 340 338 338 338 338 337 337 337 337 337 337 337 337 337 336 336 336 335 335 335 335 335 335 335 334 333 331 330 329 326 317 317 316 316 319 322 325 328 330 336 336 334 333 333 333 336 336 336 336 336 336
337 338 336 339 340 344 339 340 341 342 342 341 338 338 338 338 338 338 339 340 341 341 341 340 340 339 340 340 342 342 342 342 342 341 339 339 338 338 338 338 337 336 336 337 337 336 336 336 335 335 334 334 334 334 334 334 334 334 334 333 332 330 326 324 323 315 316 315 318 320 322 326 330 335 337 336 334 333 335 336 336 336 336 335 336
336 338 337 339 341 341 341 338 340 340 340 340 340 340 338 338 337 338 341 341 341 340 340 339 339 339 341 342 342 342 342 342 342 341 340 339 338 338 337 337 337 338 336 336 336 336 335 335 335 334 333 333 333 333 333 333 333 334 333 332 331 329 324 316 317 314 316 317 315 317 316 320 335 335 336 337 336 334 333 336 336 335 335 336 335
338 338 338 340 341 341 340 341 336 336 338 339 339 339 340 339 341 338 340 340 339 339 338 338 338 338 341 342 342 342 341 341 340 339 340 338 337 337 337 337 336 336 336 336 336 335 335 334 333 332 332 332 332 332 333 332 333 333 333 331 329 328 324 320 315 312 312 313 314 318 316 320 336 335 335 336 336 334 334 334 335 335 335 335 335
339 338 338 339 340 339 339 338 336 334 333 334 336 336 339 341 341 341 341 340 339 338 337 337 338 339 341 340 341 341 341 339 339 339 339 338 337 338 337 335 336 336 336 336 336 335 334 333 333 332 332 332 331 332 333 333 332 332 331 330 328 326 323 320 315 312 313 317 316 317 319 320 334 334 334 335 336 333 333 334 335 335 335 335 334
338 338 338 338 338 338 336 335 334 332 330 332 333 336 338 340 339 339 340 340 339 339 339 340 340 340 340 340 340 340 340 339 340 340 339 338 336 336 337 336 336 336 336 335 334 334 333 333 332 332 332 332 332 332 333 333 332 332 331 330 327 325 323 321 313 314 314 321 314 319 319 330 335 334 334 336 335 334 335 334 336 335 335 335 334
338 338 339 338 337 336 334 333 332 330 329 330 330 334 333 336 337 337 338 338 338 339 339 338 338 339 338 336 336 336 336 336 336 336 336 336 334 332 335 337 336 335 335 335 334 333 333 333 332 332 332 332 332 332 331 332 332 332 331 328 323 321 319 317 313 313 315 312 315 317 319 333 334 334 334 336 335 334 334 334 335 335 335 335 335
337 338 338 337 336 335 333 332 331 330 328 329 330 330 332 331 334 335 336 336 337 337 335 334 332 332 331 330 329 328 328 328 329 330 332 335 333 328 332 335 334 334 334 334 333 332 332 332 332 332 331 332 331 331 329 330 331 330 328 326 322 318 313 312 312 314 316 318 318 314 327 333 334 334 333 335 335 334 334 334 334 335 334 334 334
336 337 337 335 335 334 332 330 329 329 329 328 329 330 331 329 330 331 332 333 334 334 333 327 325 324 324 323 324 323 323 324 326 324 324 325 324 326 330 335 334 334 333 333 332 332 332 331 331 331 330 332 327 324 323 326 328 328 327 322 318 314 312 312 312 316 316 315 316 314 330 333 333 334 333 334 335 334 334 333 335 334 334 334 335
333 335 336 334 333 334 332 330 328 326 327 331 333 332 330 329 326 326 328 329 329 328 326 325 328 321 321 322 321 323 323 324 325 327 324 324 324 325 329 333 334 333 332 332 332 331 331 331 331 330 332 331 324 315 314 317 321 323 322 318 315 313 313 314 317 317 315 314 316 320 331 332 332 333 333 332 334 333 333 333 334 333 334 333 334
332 334 335 334 332 332 332 330 328 325 325 331 333 332 331 330 329 326 324 325 328 325 323 324 321 320 319 320 320 322 323 324 324 324 325 322 324 324 328 331 332 332 334 332 332 332 332 332 331 332 331 326 316 313 313 312 312 317 316 312 312 311 312 314 317 317 314 316 312 323 330 331 332 332 332 332 333 332 332 333 333 333 333 333 333
332 333 334 335 332 330 331 330 328 326 326 329 331 332 332 331 330 328 323 323 323 323 321 320 320 319 319 318 318 319 322 323 325 326 325 324 323 322 324 325 327 327 328 326 326 326 328 327 327 326 320 314 312 312 312 311 311 311 311 311 312 311 312 313 315 317 315 317 313 324 329 332 331 331 331 332 332 331 332 332 332 333 333 332 331
333 334 334 334 333 330 329 328 328 327 325 327 330 331 332 331 330 327 322 322 322 321 321 321 319 319 318 319 317 320 323 323 323 323 322 323 323 322 323 324 324 324 322 322 320 319 318 315 312 313 312 312 311 311 310 313 313 313 313 317 318 314 311 313 316 315 314 314 314 323 327 330 332 330 331 332 331 331 333 333 332 331 331 330 329
328 331 333 334 334 331 329 328 327 326 325 326 328 330 330 330 330 328 323 322 322 321 320 321 320 319 318 318 317 321 322 323 322 321 321 321 321 321 320 321 321 321 320 321 319 318 317 315 312 310 311 311 312 311 310 310 312 312 316 317 317 316 312 313 313 313 315 315 313 323 326 330 330 330 331 332 331 331 332 332 331 329 328 329 328
326 330 333 334 335 333 329 329 327 326 325 325 327 328 329 330 330 329 326 323 321 321 321 320 320 319 318 317 319 320 322 322 321 320 320 319 320 320 320 320 320 319 320 319 318 317 316 315 314 313 311 310 312 310 311 310 309 311 313 314 315 317 317 315 314 315 318 317 316 322 326 329 330 330 330 331 331 331 332 332 329 327 329 328 327
324 329 331 332 332 333 332 328 328 327 325 325 325 327 329 329 329 327 327 324 322 322 322 321 320 320 319 319 319 320 321 321 321 320 320 318 319 319 319 319 319 319 319 317 317 316 316 316 314 311 313 311 312 313 311 311 312 313 315 316 315 313 315 315 317 317 317 314 312 317 322 327 328 328 329 329 329 329 330 331 327 327 328 327 326
320 324 329 330 331 333 332 329 329 327 327 326 324 325 327 327 326 326 326 324 323 323 323 322 320 320 320 319 319 319 319 321 320 320 319 318 318 318 319 319 319 318 318 317 315 314 314 315 314 314 311 313 310 313 311 313 314 316 316 316 315 315 314 313 314 314 315 314 311 314 320 323 326 325 327 328 328 327 327 329 326 328 328 326 326
320 322 325 328 329 330 331 330 329 329 328 326 324 324 325 325 324 325 326 322 324 324 322 322 322 320 320 320 319 320 319 320 319 318 317 317 316 316 318 318 318 318 317 317 315 313 314 311 311 311 313 312 311 313 311 313 314 314 311 313 314 315 313 312 313 313 313 312 311 312 317 320 324 325 325 325 326 326 327 327 324 326 325 326 325
320 320 322 325 326 326 328 328 329 328 328 326 325 324 324 324 324 324 324 322 323 323 322 322 321 321 321 320 320 319 320 319 319 318 316 317 316 316 316 315 315 315 315 316 314 313 313 313 314 313 313 312 312 313 312 315 315 315 313 312 315 314 312 312 316 312 310 309 309 309 311 317 321 324 324 325 325 326 326 325 326 326 325 325 325
320 320 321 323 323 324 326 327 328 328 328 327 325 324 323 324 323 323 323 323 322 322 321 321 320 321 320 320 320 320 319 319 319 318 318 316 316 316 315 315 316 315 315 316 315 313 313 313 311 312 312 311 313 312 311 312 316 317 315 312 314 314 312 314 313 312 310 308 307 307 307 311 317 319 321 324 326 327 326 325 325 324 325 324 325
321 321 322 322 322 322 324 325 326 326 327 327 326 325 324 323 323 323 323 323 321 321 321 321 321 320 320 320 320 319 318 319 319 318 317 317 316 316 315 316 317 317 316 316 315 314 310 310 312 309 310 310 310 314 311 310 310 315 311 313 311 313 311 314 315 313 311 309 307 306 306 307 307 314 314 317 320 325 325 324 323 323 324 324 325
320 320 320 321 323 323 323 323 322 324 326 327 326 324 323 323 322 323 322 322 321 321 321 321 320 320 320 319 320 319 318 319 319 318 317 317 317 317 317 317 317 315 315 315 314 313 313 311 313 310 315 313 314 316 311 312 312 310 312 311 309 314 315 316 316 314 311 311 308 305 305 304 304 304 304 311 314 323 327 323 322 322 322 322 322
319 319 320 321 321 323 323 323 321 322 322 325 324 324 322 322 321 321 322 322 322 321 322 321 320 320 320 320 320 319 319 319 318 319 318 317 317 316 316 318 318 316 314 314 315 315 314 314 311 313 313 312 311 313 312 312 311 313 313 311 313 309 310 312 312 314 313 311 309 307 305 304 304 303 304 303 308 314 322 322 321 320 321 321 322
321 319 319 320 321 322 322 322 321 321 321 322 323 323 322 321 320 320 321 321 321 321 321 321 321 320 320 320 320 320 320 320 319 318 319 318 318 317 318 318 317 316 315 315 315 316 315 314 314 314 313 313 312 313 311 312 312 312 313 311 310 308 309 310 313 314 313 310 307 306 304 302 302 302 304 303 305 308 314 318 319 319 319 321 321
322 320 319 319 320 321 321 322 321 321 321 321 321 321 321 320 320 320 320 320 320 321 321 320 320 320 319 320 320 320 320 321 320 320 319 318 318 318 319 318 317 316 315 315 315 316 316 315 314 313 314 315 311 312 313 309 311 312 311 310 311 309 309 311 313 312 311 309 305 305 303 302 302 306 301 300 301 303 308 311 313 312 314 318 319
322 322 320 319 320 320 321 322 322 322 322 322 321 321 321 320 320 319 318 320 320 320 320 319 320 320 320 320 321 321 321 321 321 320 319 319 319 319 319 318 318 317 316 315 316 316 315 315 316 314 313 313 313 313 312 312 308 311 311 309 309 307 309 309 310 309 311 310 307 305 304 303 302 301 299 298 299 299 299 304 307 306 308 314 317
323 322 321 319 319 319 320 320 321 322 322 322 321 320 319 319 317 318 318 318 319 319 320 319 320 320 321 321 321 321 320 322 321 320 319 319 318 318 319 318 318 318 317 316 315 315 315 314 315 316 312 313 315 313 313 309 309 307 308 308 304 306 308 310 311 310 311 311 309 306 305 303 304 302 298 297 297 295 294 294 294 294 298 306 310
324 323 321 320 319 319 319 320 320 322 322 322 320 319 318 318 318 316 316 317 318 318 319 321 321 320 321 321 321 321 322 321 321 320 319 319 319 319 319 318 318 318 317 316 316 315 316 314 314 315 314 310 309 311 307 307 306 307 305 307 305 304 307 308 309 310 309 310 310 307 304 303 304 302 298 296 297 293 293 292 293 292 294 301 304
323 323 322 321 319 319 318 318 320 321 321 320 319 319 318 317 316 318 318 319 319 319 320 320 321 322 321 322 322 322 321 321 320 320 319 318 319 319 319 318 318 318 318 318 318 317 317 316 316 313 314 312 311 308 306 308 308 309 306 305 308 305 305 306 308 308 308 307 304 306 303 301 301 302 298 296 295 293 291 291 291 290 290 288 292
321 322 322 322 321 319 318 319 320 320 321 321 321 320 320 320 319 319 319 319 319 318 320 321 322 322 322 322 321 321 321 321 320 320 320 319 319 319 319 320 319 318 318 319 317 314 315 315 313 311 309 313 311 308 308 312 306 305 305 302 301 302 303 306 306 306 306 304 303 304 303 300 299 299 296 297 294 293 292 291 289 289 287 287 288
322 322 323 322 322 320 319 319 320 320 321 322 321 320 321 321 320 318 319 318 319 320 321 321 321 321 322 322 321 321 321 321 321 320 320 320 320 319 319 320 320 319 317 317 316 315 316 315 314 316 312 307 310 307 309 313 309 300 302 304 300 302 300 304 305 305 304 302 302 302 302 301 299 298 298 298 296 294 293 291 289 287 287 287 287
321 321 322 322 323 321 321 320 320 320 321 321 320 322 321 321 321 319 319 320 319 319 320 319 318 319 320 321 321 322 321 321 321 321 320 321 321 320 320 319 320 320 319 318 317 316 315 315 314 314 315 312 307 310 309 311 310 309 306 308 303 301 302 299 300 303 301 300 301 301 300 302 300 297 297 297 297 296 295 292 289 288 287 287 287
322 322 322 323 323 323 322 321 321 320 321 320 320 321 319 317 317 315 315 315 316 315 316 318 319 319 319 320 321 321 321 321 321 321 320 320 321 321 320 320 319 319 319 319 318 318 317 316 316 315 314 316 313 308 307 310 311 315 312 304 301 301 302 297 301 302 298 298 298 300 300 300 300 299 297 296 294 296 295 293 290 288 287 287 286
321 322 323 323 323 324 323 323 322 321 321 321 320 320 319 319 317 317 316 316 316 316 317 318 318 318 319 320 319 320 321 321 321 321 321 319 320 320 320 319 318 319 319 320 320 317 317 316 316 317 315 315 317 312 310 309 314 314 314 315 312 307 298 298 304 299 299 298 298 299 300 300 298 298 298 297 296 296 295 294 291 289 288 287 287
321 323 323 323 324 324 324 324 323 322 322 321 320 319 319 319 319 319 319 318 317 318 320 319 319 319 319 319 319 318 320 320 320 320 321 320 320 320 320 319 319 318 318 318 319 319 319 317 317 316 317 316 314 315 315 316 311 313 313 313 308 304 306 307 305 297 300 302 298 298 300 299 299 298 298 297 296 296 295 295 292 290 288 288 287
322 323 323 324 324 324 324 324 324 322 323 322 320 320 320 319 319 319 319 319 319 319 319 319 318 317 319 319 319 319 319 320 320 320 321 321 320 320 320 319 319 319 317 318 319 319 318 317 317 318 318 317 317 317 317 316 315 315 313 312 311 308 305 305 306 309 304 298 301 297 295 296 296 297 297 296 295 296 295 294 293 290 288 288 287
321 321 323 323 324 324 323 324 324 323 323 322 321 320 320 320 320 319 318 318 319 319 315 314 317 317 318 317 318 319 319 319 320 321 320 321 319 320 320 320 319 319 317 318 318 318 318 319 319 318 318 318 319 319 319 318 316 316 313 313 313 312 310 310 307 305 304 303 302 299 297 293 293 294 295 295 295 295 296 296 294 291 289 288 287
320 321 321 322 322 322 322 322 323 324 323 322 321 321 320 319 320 319 319 319 318 317 314 316 316 315 317 317 317 318 318 318 319 320 321 321 321 320 320 321 320 320 317 319 319 320 321 321 322 321 321 320 320 319 318 320 319 319 318 317 314 313 312 308 306 304 303 303 303 298 299 295 293 295 295 294 294 295 295 296 294 291 289 288 287
317 317 318 319 320 321 322 321 322 323 322 322 322 321 321 320 320 320 320 319 319 318 317 317 316 314 317 316 316 317 317 318 318 318 320 321 322 320 321 321 322 321 320 321 322 322 322 322 322 322 321 321 321 320 317 317 319 318 317 317 316 315 313 311 310 307 308 302 301 300 298 297 298 297 294 295 295 295 295 295 295 292 289 288 287
Wind_Speed
1 3 2 6 11 12 12 10 11 10 9 9 10 11 12 13 13 13 14 14 15 15 16 14 15 15 14 14 14 14 14 14 15 15 16 16 16 16 16 17 17 17 17 16 16 16 16 16 16 17 17 16 15 14 13 15 16 16 16 16 15 15 15 16 16 16 16 16 17 16 16 16 16 16 17 18 18 17 11 14 10 6 8 12 17
5 2 3 3 11 10 12 12 12 11 10 9 10 11 10 12 14 12 13 13 14 15 13 13 12 14 14 14 13 13 13 13 14 14 14 15 15 15 15 15 16 16 17 16 16 15 15 16 16 16 16 16 15 14 14 15 17 16 16 15 15 16 16 16 16 16 15 15 14 13 15 16 16 15 16 16 17 15 11 14 16 8 6 16 18
5 3 2 3 7 9 11 11 13 12 11 10 9 10 9 9 11 12 12 13 13 13 12 11 11 11 13 13 13 13 15 15 14 14 14 14 13 15 16 16 16 16 16 16 16 15 15 16 16 16 15 15 15 14 15 17 16 15 16 16 16 16 16 16 16 15 14 13 11 11 11 12 16 15 16 16 17 16 13 15 14 13 10 18 16
6 3 3 5 8 8 10 11 12 12 11 11 9 8 9 10 9 11 11 12 12 12 11 12 13 13 11 12 13 14 14 14 14 13 13 12 14 14 14 15 15 15 15 15 14 14 15 16 16 16 15 15 15 15 15 16 16 16 16 15 15 16 16 15 14 13 12 11 11 8 5 6 8 16 16 15 16 16 12 15 14 16 18 17 17
5 4 3 4 4 6 9 11 12 11 12 11 9 8 9 9 9 7 10 11 10 10 11 12 13 11 11 12 13 14 15 14 13 13 13 13 14 14 14 14 14 15 14 15 15 15 15 16 15 15 15 15 15 15 15 15 16 16 16 15 15 15 15 14 13 12 12 13 12 8 5 5 4 14 15 15 15 12 11 14 14 13 16 17 17
5 4 4 4 4 5 9 11 12 12 12 11 10 9 9 8 8 8 8 7 10 10 10 12 10 10 12 12 13 14 15 15 14 13 14 15 14 13 13 14 15 14 13 14 14 14 14 14 14 14 15 15 15 16 16 16 16 16 16 15 15 15 14 13 12 13 12 12 9 5 6 6 5 6 15 14 14 11 13 15 16 15 15 15 15
7 4 4 4 3 4 9 11 12 12 11 11 9 9 10 10 10 9 9 8 8 9 11 11 10 11 12 13 13 14 15 15 14 12 12 13 13 14 14 15 15 14 14 14 14 14 14 14 14 14 14 14 16 16 16 15 14 14 14 14 14 13 13 12 12 12 11 7 5 5 5 5 4 3 15 13 13 13 13 13 14 13 12 13 13
5 4 4 4 3 4 7 10 11 12 12 11 11 10 10 9 8 9 9 9 8 9 11 11 11 10 12 12 14 15 14 16 14 14 14 12 11 13 14 13 12 13 13 13 13 13 13 14 13 13 13 14 14 15 15 15 14 14 13 13 12 12 11 11 11 10 10 5 5 5 5 5 5 3 12 13 13 13 13 12 11 12 10 9 6
5 4 4 3 3 4 7 9 11 12 12 12 12 11 11 11 10 9 9 9 10 9 10 11 11 10 12 14 14 14 15 15 14 14 15 13 14 13 13 13 12 13 13 12 12 12 13 13 12 12 13 13 14 14 15 15 14 13 13 12 11 10 10 10 10 9 5 4 5 5 5 5 4 3 10 12 12 11 10 6 4 6 8 3 8
5 4 3 3 3 5 9 9 10 12 13 11 10 10 11 12 11 11 10 9 10 11 10 11 11 10 11 13 13 14 14 15 15 14 14 12 11 12 12 12 13 12 12 12 12 12 12 12 12 12 13 13 13 13 14 14 14 12 11 11 10 10 10 10 9 6 4 5 5 6 7 9 5 2 9 11 10 7 4 1 2 1 1 11 15
5 4 3 3 3 7 9 8 8 8 12 11 10 10 11 11 11 12 12 10 11 11 10 11 12 11 11 12 12 12 13 14 14 14 14 13 13 13 13 13 12 12 12 12 12 12 12 12 11 11 12 13 13 13 13 13 13 12 12 11 10 10 10 9 8 4 5 5 6 6 7 11 7 4 9 10 10 5 3 4 4 10 9 14 11
6 4 3 3 5 7 8 8 8 10 11 11 10 10 8 9 9 8 10 10 10 10 10 11 11 11 12 12 11 13 13 13 13 14 12 12 11 12 12 12 12 11 11 11 11 11 11 11 11 11 12 12 12 12 12 12 13 13 12 11 10 9 9 8 5 4 4 5 5 4 5 5 6 5 9 8 8 8 7 8 9 10 11 12 11
7 5 4 3 4 6 9 9 9 9 9 9 9 11 9 8 9 11 9 10 11 11 11 10 10 10 11 11 12 12 13 13 13 13 12 12 12 12 12 11 12 11 11 10 10 10 10 10 10 10 11 11 11 11 11 11 12 13 13 11 9 8 7 7 3 4 4 4 4 5 5 5 5 9 9 8 7 6 8 10 10 10 10 10 10
9 6 4 4 3 5 9 9 9 9 9 9 10 9 11 10 9 11 11 9 9 10 11 10 10 10 10 10 11 11 11 12 13 13 13 12 12 11 11 11 11 11 10 10 9 9 9 9 10 10 9 10 10 10 10 10 11 11 11 10 8 7 6 4 4 3 3 4 3 3 3 4 3 8 8 8 7 6 9 9 10 10 11 10 10
9 7 5 5 4 4 9 10 9 9 9 9 8 7 11 10 9 10 11 11 10 10 10 10 11 10 10 11 11 11 11 12 12 12 12 12 11 11 11 10 10 10 10 9 9 8 8 9 9 9 9 9 9 9 9 9 9 10 10 9 7 5 5 3 3 3 3 3 2 3 3 3 6 8 8 8 7 8 8 9 9 10 10 10 9
10 8 6 5 5 5 6 8 10 10 9 9 7 7 10 9 7 9 11 11 11 11 10 10 11 10 10 10 11 11 11 12 12 11 8 10 10 10 10 10 10 9 9 8 7 7 7 8 8 8 8 8 8 8 8 8 9 8 8 8 7 5 4 4 3 3 3 3 2 1 3 3 9 7 7 6 6 7 8 8 9 10 10 10 9
8 8 7 6 6 5 6 6 7 10 9 7 8 8 6 5 5 8 9 8 9 9 9 9 10 11 9 9 9 8 10 10 10 9 8 10 9 7 8 9 9 8 8 7 6 6 6 6 6 6 7 7 7 7 8 8 8 7 7 7 6 6 5 4 3 2 3 2 2 3 4 3 7 9 8 7 7 7 7 9 10 10 9 9 8
8 7 8 6 5 5 6 5 6 6 4 6 8 9 7 5 5 6 6 8 7 7 6 6 7 10 9 7 7 8 9 8 7 6 7 9 7 7 7 8 8 8 7 6 6 6 5 5 5 5 5 6 7 7 7 8 7 7 7 7 5 5 4 4 2 0 1 1 3 3 4 6 10 8 9 8 6 8 9 9 9 9 9 8 7
7 7 7 7 6 6 6 5 5 5 4 4 4 7 8 6 6 5 5 6 7 7 9 9 9 8 8 7 7 8 8 8 8 9 9 9 8 7 6 7 8 7 6 5 4 4 4 3 3 3 4 5 5 6 7 7 7 6 5 5 6 4 4 2 1 0 1 2 3 4 4 8 9 8 7 8 8 6 8 8 9 9 9 7 7
7 7 7 6 6 6 5 5 5 5 4 4 4 4 7 8 7 7 6 6 8 10 9 8 8 8 8 7 8 7 7 6 9 7 9 8 7 5 6 5 6 6 5 4 3 3 3 2 2 2 3 4 5 6 6 6 6 6 6 6 6 4 2 0 1 1 0 2 2 4 5 8 9 9 8 6 6 6 7 7 8 9 7 6 8
6 7 7 6 6 7 5 5 4 5 4 4 4 4 4 7 6 8 8 7 8 9 9 9 8 7 7 7 6 5 4 4 5 4 6 4 6 7 5 5 6 5 4 3 3 2 1 1 0 1 2 3 5 5 5 5 6 6 6 7 6 2 2 0 1 0 0 1 2 3 6 7 8 9 9 5 5 6 7 7 8 6 6 8 9
9 8 7 6 6 6 7 5 4 4 4 4 4 3 3 4 4 3 4 5 6 6 6 5 5 4 7 5 4 4 3 3 4 5 3 3 3 4 5 5 6 3 3 2 2 1 1 1 2 2 2 4 6 2 3 5 6 7 6 6 3 2 1 0 1 1 1 0 1 3 6 6 6 8 8 4 4 5 6 6 6 6 7 8 10
9 8 7 8 7 7 7 7 5 4 4 4 4 3 3 3 3 3 3 5 4 4 4 4 4 4 4 3 3 4 3 3 3 3 3 4 3 2 3 6 6 5 3 2 1 2 3 3 3 4 5 6 2 2 3 2 3 4 4 2 2 2 3 1 2 2 2 1 1 4 5 5 6 7 5 3 3 4 5 5 5 7 7 9 11
8 8 6 6 6 7 8 8 7 6 5 4 4 4 3 3 3 3 3 4 4 4 4 4 4 4 4 4 4 3 4 3 4 7 6 4 3 2 2 3 4 3 2 1 3 4 5 6 6 5 4 2 2 2 2 3 3 3 3 2 2 2 0 1 3 3 2 0 1 4 5 6 5 5 3 2 3 4 5 3 6 8 9 10 11
5 4 5 7 7 6 7 8 8 7 6 6 6 6 5 4 3 3 4 4 4 3 4 4 4 4 4 4 3 3 3 3 3 3 3 4 3 2 2 2 1 2 0 1 1 2 2 2 3 2 1 2 2 3 3 4 4 3 3 3 2 3 0 1 1 2 1 0 0 4 5 5 7 4 3 2 3 4 4 4 7 8 9 9 10
3 5 7 7 8 7 7 6 6 7 7 7 7 6 6 6 5 4 4 3 4 4 4 4 5 4 4 4 4 4 3 3 3 4 4 4 4 3 3 3 3 3 2 2 2 2 2 2 2 3 2 1 2 4 3 2 4 4 4 3 3 3 1 1 3 2 1 1 1 4 5 5 6 3 3 3 2 3 4 3 6 6 7 8 10
8 8 7 6 7 7 7 7 8 7 7 7 6 6 7 6 6 6 5 5 4 5 5 5 5 4 4 4 5 4 4 4 3 3 4 4 4 4 4 3 3 3 3 3 3 3 2 2 2 3 3 3 3 3 3 3 3 3 4 4 4 4 2 0 4 3 2 1 2 4 4 5 6 5 4 3 3 3 4 3 5 3 9 8 9
9 9 8 7 7 9 8 7 8 9 8 7 7 8 9 7 7 7 6 6 6 6 6 6 5 6 5 5 5 5 6 4 5 5 5 3 4 4 3 3 3 3 3 3 3 3 3 3 2 3 4 3 3 4 3 3 3 3 4 4 4 3 2 1 2 3 3 1 1 2 3 4 5 5 5 4 2 1 2 3 4 6 9 8 8
10 10 9 10 11 10 10 10 8 9 8 8 8 7 8 8 7 7 8 7 7 7 7 6 6 5 5 5 5 5 4 5 6 7 5 4 4 4 4 4 3 2 2 4 3 4 4 3 3 4 3 4 3 5 4 4 4 5 4 5 4 4 2 2 3 3 2 2 1 1 3 4 4 3 4 4 3 2 2 3 3 7 7 8 8
10 10 10 11 10 10 11 12 10 10 8 8 7 7 8 8 8 8 8 7 7 7 6 6 6 5 5 5 6 5 6 6 6 4 5 5 4 3 4 4 4 4 3 4 4 4 5 3 3 3 4 4 4 5 3 4 5 5 4 4 4 5 1 3 3 3 3 3 1 0 3 3 3 2 3 3 3 4 3 3 4 6 6 8 8
9 10 10 9 8 9 10 10 10 9 8 9 8 8 7 8 8 7 7 7 7 6 6 6 5 5 6 5 5 6 5 5 5 5 4 4 4 4 4 3 4 4 4 5 3 5 4 5 5 5 5 5 5 5 3 5 5 5 3 2 5 4 2 2 2 2 1 3 1 0 1 3 2 3 2 3 4 6 4 5 6 7 6 7 8
11 11 9 8 8 11 11 11 11 10 10 9 8 8 8 8 7 7 7 7 6 6 6 6 6 5 5 5 5 6 5 5 5 5 5 5 5 5 4 3 5 5 5 5 5 5 5 5 4 4 4 3 5 4 3 3 5 5 2 3 4 4 3 2 2 2 3 3 2 0 1 1 3 3 5 7 9 10 6 6 6 6 6 6 7
9 11 11 9 10 11 11 10 10 10 11 10 9 8 7 7 7 8 7 7 7 6 6 7 7 6 5 5 6 6 5 6 6 6 5 5 6 5 5 5 6 5 5 5 4 4 3 4 5 3 3 2 3 6 3 2 4 6 3 5 3 4 2 3 3 3 3 3 2 1 0 0 1 4 6 8 8 12 6 6 7 6 6 6 6
9 6 6 9 8 6 6 6 7 10 11 9 8 8 8 7 7 7 7 7 6 7 7 6 7 7 6 6 6 6 6 6 6 6 6 6 6 6 6 6 6 5 4 4 5 5 5 4 6 3 5 4 5 5 3 4 5 4 5 4 3 5 1 2 4 4 3 4 3 1 0 0 1 1 3 7 10 7 8 7 6 5 5 5 5
8 8 10 10 8 8 7 6 7 9 9 10 10 9 7 7 7 7 7 7 7 7 7 7 7 7 6 6 6 6 6 6 6 7 7 6 6 6 6 7 5 4 5 5 5 6 4 6 4 4 4 4 4 4 4 4 5 5 5 3 5 3 0 1 2 3 3 2 4 2 0 0 0 2 4 4 7 9 8 8 5 5 4 5 5
11 10 9 8 9 8 8 9 8 10 10 10 9 9 8 8 7 7 7 7 7 8 8 7 7 6 6 6 6 7 7 7 7 6 7 7 6 6 7 6 5 5 5 5 4 6 5 5 5 5 5 6 4 5 3 4 4 5 5 5 4 3 2 1 2 3 3 2 2 3 1 0 0 2 3 5 5 7 12 11 8 5 3 6 6
11 10 10 9 9 10 10 11 11 12 11 10 9 7 7 7 7 7 8 7 8 7 7 6 6 6 6 7 7 7 7 8 7 7 7 7 6 6 6 6 5 5 5 5 5 6 5 5 5 5 5 6 5 5 6 3 5 4 5 5 5 3 3 3 5 4 4 4 3 3 2 1 1 2 3 5 4 4 8 11 8 9 10 4 5
10 11 11 12 12 11 10 11 10 10 10 11 10 9 8 7 7 7 6 7 7 6 6 6 6 6 6 7 7 7 7 8 8 7 7 7 6 7 6 6 5 6 6 5 6 5 4 5 6 5 5 5 6 6 6 5 3 5 6 5 5 2 3 1 1 4 5 5 4 5 5 3 2 2 3 4 4 5 4 7 8 9 9 7 5
9 10 10 10 9 9 9 9 9 9 9 9 8 8 6 6 5 5 5 6 5 5 6 6 6 6 7 7 7 7 8 8 8 7 7 7 7 7 7 7 6 6 6 6 5 5 5 5 6 7 4 5 6 5 6 3 3 4 4 4 2 1 2 0 2 4 5 6 6 5 4 4 3 2 3 3 4 4 5 4 4 4 5 9 8
9 9 10 10 11 9 8 8 9 9 8 7 7 7 6 7 7 5 6 6 5 6 6 7 7 8 7 7 8 8 7 8 8 7 7 8 7 7 8 7 6 6 7 7 7 7 8 7 7 7 6 4 4 5 3 2 2 2 3 4 2 1 1 0 3 4 3 5 5 4 5 4 4 3 2 3 4 4 5 4 4 4 3 5 7
10 10 11 11 11 11 10 12 10 9 9 8 8 8 8 6 5 9 9 7 8 7 8 8 8 8 8 8 8 8 7 7 7 7 8 8 7 7 7 7 6 7 8 9 9 8 7 7 6 5 7 6 4 3 3 2 1 3 1 3 5 1 1 2 4 4 4 1 1 5 4 5 4 4 3 3 4 4 4 4 4 4 3 3 3
11 11 13 13 11 11 12 12 9 10 11 11 9 9 9 9 9 9 8 8 8 8 9 8 9 8 8 8 8 7 8 8 7 7 7 7 8 7 8 9 7 8 8 7 6 6 5 5 4 4 4 7 5 4 4 5 1 3 3 4 3 4 1 2 3 3 3 3 3 2 4 5 5 4 3 3 3 3 4 4 4 4 3 3 2
12 13 13 11 12 12 12 11 11 11 11 11 10 10 8 8 8 6 8 6 6 7 7 7 6 7 8 8 7 7 8 8 8 7 7 8 8 8 9 8 8 7 7 7 6 7 6 7 6 7 4 2 4 1 4 6 5 1 2 2 4 2 4 2 1 2 3 4 4 3 4 4 6 5 5 4 4 4 3 3 4 4 4 3 2
10 11 12 13 12 12 12 12 11 11 10 11 11 10 9 9 8 6 5 7 6 6 6 6 6 6 9 8 8 8 8 8 8 8 8 8 9 9 8 7 8 7 7 8 6 7 6 6 6 7 5 5 3 5 4 6 5 5 3 4 2 1 5 3 2 1 1 4 5 4 3 4 4 3 4 6 6 5 5 3 4 4 4 3 2
13 13 13 13 11 14 14 13 12 12 11 11 12 9 7 5 5 3 1 3 2 3 4 8 9 8 7 9 10 7 8 9 8 9 9 9 9 8 8 8 7 6 6 7 7 8 7 6 7 7 8 9 7 4 3 5 7 7 5 2 1 1 5 3 1 2 1 2 3 4 4 4 5 5 6 6 3 5 5 4 4 3 4 4 3
13 14 13 14 12 12 12 12 11 11 12 11 11 10 9 9 8 8 8 7 8 8 11 13 9 9 11 6 6 8 9 9 8 9 9 8 8 8 8 8 7 7 7 8 7 5 6 8 8 8 8 8 8 4 5 4 8 9 8 7 5 4 2 2 1 3 1 1 3 4 5 3 2 4 4 5 6 6 5 6 4 5 4 4 4
15 13 11 12 13 13 12 13 12 11 10 10 11 10 9 9 12 12 11 11 12 11 9 7 7 7 6 7 7 6 8 9 9 8 8 8 8 8 8 8 8 7 7 7 8 8 7 7 6 7 8 7 5 8 9 8 2 5 6 7 3 2 4 4 5 1 2 1 2 4 5 5 6 6 7 7 7 6 6 6 7 6 6 6 6
15 11 12 11 14 15 13 13 11 10 10 9 11 12 12 11 11 11 11 12 13 13 9 8 5 5 7 8 6 7 7 8 9 8 9 9 9 9 8 8 8 8 7 8 9 7 6 5 7 8 8 7 9 9 9 7 9 8 8 10 9 6 4 3 5 8 5 2 3 2 1 5 5 6 7 8 9 9 8 8 7 7 7 7 7
13 13 13 14 14 11 11 9 11 11 10 11 12 13 13 12 12 11 12 11 11 10 4 5 6 6 7 5 7 7 7 7 8 8 8 9 9 9 9 9 9 8 8 8 7 7 7 7 7 7 8 9 9 11 10 9 8 9 5 6 5 6 7 7 5 5 6 7 7 6 5 0 2 5 8 7 7 8 9 10 9 9 8 7 7
12 12 10 8 8 8 10 11 12 10 10 11 12 13 13 11 11 12 14 13 10 7 4 6 6 5 8 7 6 6 6 6 6 7 7 8 8 8 9 10 10 9 8 8 8 8 8 9 9 9 9 10 9 9 11 11 9 8 8 6 6 6 5 2 2 3 2 3 6 6 7 9 7 9 7 8 10 9 8 7 9 9 8 8 7
8 7 8 8 8 9 11 12 13 10 10 12 13 14 12 12 13 13 15 15 11 8 7 8 6 6 8 6 6 5 5 6 5 6 7 7 8 8 9 9 9 8 8 9 9 10 10 10 9 10 11 11 9 9 10 10 10 10 10 9 9 9 9 9 10 8 9 6 6 6 5 9 12 8 8 9 8 8 7 6 7 8 8 8 6
Wind_Direction
246 140 147 146 141 148 140 134 112 107 104 106 109 107 104 105 103 102 102 100 98 97 95 94 95 95 93 93 91 93 92 90 94 94 92 90 89 87 87 88 86 80 79 82 80 77 79 84 84 83 80 76 73 74 79 84 82 78 75 74 75 77 76 69 58 55 48 54 68 69 68 71 71 72 70 66 65 64 54 56 52 46 59 48 50
169 185 138 137 143 147 128 123 116 110 111 113 117 103 100 108 111 110 109 105 99 92 91 90 91 95 94 94 94 96 97 95 91 88 85 86 86 86 83 81 81 83 81 78 78 81 84 87 87 84 79 76 75 74 83 90 89 85 81 74 74 78 74 65 60 55 52 51 50 60 75 74 70 69 62 60 60 62 56 53 57 55 59 61 56
127 129 140 140 136 133 127 129 118 114 113 114 119 114 95 94 119 122 113 103 101 99 96 98 98 94 95 96 98 97 97 97 95 92 93 95 95 95 89 84 83 81 81 80 76 80 88 90 89 85 80 76 75 79 86 95 93 89 85 82 82 79 74 68 62 58 57 54 48 35 14 45 71 67 69 63 64 63 57 58 61 69 66 67 64
120 128 133 134 135 144 137 128 122 121 121 113 112 115 101 91 101 115 106 101 102 103 105 105 103 99 102 103 104 102 99 97 95 94 91 92 85 85 88 85 83 82 80 79 82 86 91 95 90 84 80 76 76 82 92 100 98 92 88 87 84 79 73 67 61 57 55 58 56 40 33 27 45 64 66 62 65 72 71 64 56 63 60 60 59
114 125 127 124 134 145 138 123 123 122 119 115 118 117 110 103 97 109 118 114 111 111 106 104 104 108 106 106 111 107 103 101 100 99 100 96 90 91 92 91 88 86 87 87 86 90 97 99 94 85 76 73 76 85 94 101 100 93 90 88 86 82 75 65 55 46 37 31 30 27 22 13 13 62 66 64 62 72 68 72 64 61 57 58 58
124 120 124 128 135 150 134 126 123 124 126 126 123 121 122 126 119 103 103 120 124 125 117 110 107 110 110 114 113 109 109 107 105 106 109 107 108 105 94 93 93 92 86 88 91 95 99 99 91 83 77 74 76 85 91 97 97 95 91 90 87 81 73 64 54 44 35 28 20 16 8 9 22 53 61 63 61 62 67 64 68 69 57 53 56
123 123 125 129 137 152 136 130 124 124 126 126 126 128 121 104 107 122 130 125 123 131 119 115 117 112 114 119 120 119 116 112 108 105 100 95 92 95 100 94 89 90 96 93 93 99 103 100 91 83 78 76 78 82 87 89 91 92 93 89 85 80 73 64 54 46 40 31 17 10 5 9 358 37 61 59 60 61 61 68 72 64 60 56 49
108 118 126 133 137 148 141 129 127 127 127 126 128 126 121 115 130 135 122 116 128 126 119 117 114 111 112 122 118 113 115 111 112 112 106 104 101 93 89 91 98 98 95 94 95 100 105 102 92 84 80 73 75 78 82 87 91 93 93 89 85 79 72 65 60 52 45 32 24 16 15 360 355 23 66 65 60 63 58 59 62 58 64 71 59
119 122 127 137 146 135 137 126 133 132 130 133 136 135 136 136 137 125 127 133 137 127 124 119 117 122 111 113 118 113 108 108 107 110 109 109 107 102 100 99 99 98 101 102 102 103 106 104 94 87 80 73 73 75 80 84 88 91 90 89 85 78 70 62 56 48 38 35 28 19 18 14 353 10 74 72 67 70 63 42 37 52 50 76 40
122 121 134 139 137 130 122 131 138 137 133 133 133 140 139 137 136 133 128 143 134 124 123 121 122 119 118 113 113 118 118 115 116 110 107 107 103 104 106 107 105 101 97 97 100 104 107 105 97 88 80 75 72 73 77 82 84 85 85 83 84 80 73 61 52 39 33 29 28 18 13 23 10 331 69 70 75 67 62 24 340 174 278 49 37
132 134 141 139 138 131 128 134 139 136 132 135 142 137 132 135 133 133 133 140 133 128 131 129 126 122 115 116 120 117 115 116 117 113 113 115 115 111 110 109 110 112 107 105 106 107 107 102 95 85 79 74 72 72 73 75 77 76 75 74 74 71 66 59 50 33 29 26 28 18 11 15 8 335 69 66 65 94 243 360 20 34 34 45 33
138 139 147 144 146 136 134 133 137 131 134 142 139 136 129 136 122 127 137 128 112 119 119 119 123 126 117 117 119 121 122 122 120 117 116 113 114 114 110 109 105 101 108 107 105 106 103 100 93 86 78 74 73 71 72 72 70 70 68 66 68 67 59 56 56 45 34 25 25 13 16 13 358 10 56 63 63 58 50 33 30 28 10 13 19
148 141 149 152 139 143 136 137 131 133 139 138 132 137 140 146 144 146 150 127 124 115 116 125 125 126 130 121 127 127 127 126 124 122 123 122 121 121 119 117 114 114 108 109 104 100 97 93 90 84 79 76 72 71 70 68 67 66 65 65 68 67 65 58 49 52 42 30 26 14 13 9 357 22 35 44 56 48 37 29 31 12 15 12 12
153 150 155 151 142 144 138 134 136 138 136 133 135 147 149 151 153 150 145 131 129 124 130 137 135 137 131 132 127 129 131 130 128 125 125 124 123 122 121 123 121 117 113 104 101 97 96 94 91 86 83 78 75 74 72 70 69 71 69 67 71 75 68 60 54 52 51 33 20 15 14 357 335 26 29 25 41 35 43 28 21 17 23 12 17
155 153 155 153 146 145 140 136 138 137 137 140 152 155 147 151 155 149 136 135 140 138 139 146 147 141 140 139 137 136 132 128 125 125 125 126 125 124 122 122 122 120 115 110 98 91 90 91 89 88 87 87 82 78 75 72 69 66 69 65 59 71 88 78 53 37 31 35 10 360 359 349 341 32 24 29 19 20 19 29 16 17 29 16 20
153 153 150 155 142 149 139 136 136 140 146 150 150 144 152 160 165 148 148 147 147 148 147 147 150 146 124 133 139 136 137 133 127 123 118 121 124 125 125 126 123 117 110 103 98 94 91 90 90 86 86 86 82 77 71 65 56 49 54 62 62 55 79 79 56 34 15 2 355 6 345 340 338 17 34 26 9 19 14 18 14 19 20 20 22
156 150 151 152 145 149 136 135 141 144 149 143 142 136 131 134 141 141 145 150 149 149 148 154 157 137 120 130 131 127 135 132 126 125 124 128 126 121 121 122 119 114 114 112 110 103 99 93 85 74 68 68 68 63 53 45 38 33 33 52 44 61 73 76 64 28 2 341 358 357 341 330 339 357 19 27 9 20 22 15 12 24 21 21 27
158 156 153 152 149 141 133 135 134 136 142 135 140 139 140 127 105 93 134 147 145 141 140 132 94 93 96 98 113 117 116 123 115 108 104 101 87 95 107 119 120 117 117 113 109 111 108 100 88 77 66 57 54 47 38 31 27 22 15 36 40 56 83 105 111 79 347 342 342 344 348 337 348 359 13 13 15 17 26 16 13 16 32 28 38
162 162 152 151 151 137 138 136 132 131 133 129 136 140 143 135 116 115 107 124 129 108 102 98 110 103 101 95 97 98 100 98 100 97 93 95 91 89 107 123 127 121 119 120 119 117 110 99 85 76 61 50 45 37 26 16 7 8 8 8 61 23 59 91 128 23 9 343 344 352 337 341 349 355 2 15 12 12 16 18 19 13 41 42 52
166 162 158 154 150 140 140 132 134 133 136 135 138 139 143 134 134 128 125 125 129 128 120 112 108 113 108 103 97 92 88 88 92 93 97 99 98 103 108 120 130 138 137 135 132 120 111 106 90 59 47 42 29 23 11 358 349 346 350 358 12 46 24 23 195 158 346 331 357 338 328 346 346 346 360 13 7 13 21 17 21 31 51 62 67
168 166 164 159 154 144 142 131 140 138 138 137 137 138 143 135 138 139 136 136 137 136 131 124 119 118 118 113 102 99 101 99 88 95 92 89 117 120 123 131 145 151 156 148 139 136 122 120 143 342 352 32 28 4 356 343 334 324 343 344 353 59 341 110 167 346 338 330 339 319 324 337 338 337 339 17 6 18 31 23 37 56 59 70 79
171 168 169 159 154 149 148 141 137 136 140 136 139 115 116 129 127 134 134 136 133 128 128 133 132 133 131 128 125 122 122 114 120 120 110 111 95 128 138 141 145 138 157 172 172 219 268 229 280 277 317 11 358 358 340 327 317 320 333 337 345 345 313 207 125 146 257 334 315 307 325 327 328 327 329 1 20 33 38 41 63 68 68 74 77
180 178 172 170 169 154 153 150 153 147 143 143 150 126 132 116 123 126 127 135 142 137 143 141 144 151 151 145 143 140 140 136 145 148 139 118 122 125 132 139 146 152 177 173 311 296 296 294 307 348 357 341 346 350 319 315 310 318 328 356 332 346 346 308 123 190 231 201 329 313 320 321 323 322 322 2 41 47 51 62 72 78 78 79 84
180 184 172 172 174 170 164 160 159 156 152 150 144 151 152 143 141 147 143 141 148 158 158 159 163 164 160 157 152 143 145 141 153 152 141 148 142 111 94 99 114 119 100 20 285 298 303 310 319 325 337 344 329 306 308 310 312 317 319 306 302 286 155 251 167 196 234 314 349 306 310 318 328 318 331 43 67 54 50 85 96 92 85 85 84
177 165 176 184 185 180 169 166 159 161 159 157 155 164 165 155 157 163 162 157 166 176 178 175 176 175 171 164 161 147 149 154 159 164 174 163 170 172 187 186 175 200 202 247 280 285 310 315 323 331 271 313 325 296 314 311 309 326 323 314 324 288 327 147 121 156 192 321 298 295 297 313 314 339 33 60 72 67 65 106 109 98 91 90 85
161 189 191 190 191 189 178 166 163 166 167 163 169 168 163 173 173 176 174 181 175 185 193 194 189 189 182 172 154 152 162 169 180 189 192 189 189 195 200 202 205 215 206 238 252 266 280 277 290 295 284 270 281 293 298 275 298 325 314 311 289 275 262 165 116 153 165 249 297 294 306 313 322 21 23 53 48 65 78 116 111 104 98 89 87
188 200 191 195 190 192 190 170 172 170 176 168 165 164 180 180 183 173 178 193 189 189 203 202 202 194 194 180 167 177 182 189 191 198 204 198 200 200 199 203 202 211 210 218 239 247 245 249 249 263 288 302 294 287 286 278 254 281 278 270 258 261 274 354 141 177 169 248 289 300 330 27 13 8 22 27 30 58 90 166 111 105 95 95 92
186 193 194 194 191 197 193 184 181 175 178 175 169 175 180 183 188 184 194 191 186 200 203 201 198 201 198 195 190 181 188 192 204 206 214 206 213 206 200 201 211 215 208 214 228 240 241 244 260 282 288 287 282 292 287 280 262 220 262 284 293 269 253 152 168 159 158 203 290 311 342 30 18 15 1 343 345 356 115 165 141 110 102 100 103
187 192 193 194 200 195 190 194 190 186 179 175 179 178 182 185 187 185 193 192 196 200 203 202 199 203 201 202 193 192 198 198 205 216 211 219 215 207 199 211 213 218 203 219 219 233 243 239 246 259 273 282 287 280 280 281 276 277 265 282 286 287 230 154 167 162 176 156 217 331 5 35 39 22 350 334 316 278 195 162 128 111 110 112 108
199 192 191 202 199 193 194 194 193 189 183 179 187 184 186 187 191 192 194 192 202 200 201 209 207 195 207 205 205 203 199 200 210 211 198 222 219 216 209 216 222 223 209 224 217 224 234 238 249 256 262 266 272 257 251 268 276 268 279 270 287 273 238 180 161 175 188 144 173 359 5 32 48 32 353 318 265 217 205 164 142 126 122 116 111
198 198 198 202 196 192 200 195 194 191 184 190 189 194 186 195 194 193 193 198 200 200 206 211 212 207 209 202 207 210 209 210 212 208 209 224 223 213 218 207 228 225 212 230 213 219 226 226 225 226 232 240 244 250 238 256 264 277 259 257 265 289 245 248 152 137 149 127 107 22 14 32 43 34 338 300 270 268 152 158 134 121 132 122 114
202 204 201 198 188 197 201 196 193 190 190 194 189 193 196 198 195 194 202 200 195 203 207 212 218 215 211 207 206 209 208 216 210 207 204 216 224 221 225 208 231 230 217 229 228 228 226 236 239 232 235 229 256 276 260 249 271 272 297 274 276 281 274 172 134 140 146 122 109 42 17 3 36 36 5 347 333 311 164 162 135 139 137 129 120
211 203 202 193 196 198 199 199 190 189 193 195 194 198 196 197 196 201 203 197 198 202 208 211 217 216 209 209 209 207 203 205 207 205 203 211 214 216 220 220 226 222 219 224 231 236 243 258 264 256 275 274 276 272 283 287 283 277 300 283 306 287 252 152 126 154 148 140 123 76 16 355 2 30 21 11 345 325 201 145 145 148 143 134 125
205 210 203 208 201 200 197 190 189 191 196 197 194 195 198 200 200 202 201 197 201 203 210 211 214 215 208 207 208 205 202 205 199 206 202 210 216 214 218 227 228 216 216 215 223 228 238 246 255 274 262 245 241 251 265 282 270 291 289 276 299 272 230 200 156 171 156 151 131 107 28 349 359 19 31 13 2 2 82 124 141 143 136 130 129
196 202 206 206 198 199 190 195 187 195 194 197 196 199 195 197 199 202 202 199 202 206 209 210 210 213 206 211 206 203 205 205 205 202 207 208 214 219 221 228 222 205 207 214 213 229 224 235 235 237 257 253 251 265 262 263 279 289 287 318 302 318 11 215 138 147 156 150 133 141 112 359 9 29 42 36 20 23 66 95 123 138 136 136 129
203 203 205 200 205 203 195 199 187 194 196 198 198 198 196 197 198 200 200 203 205 209 210 209 208 208 204 208 208 208 207 209 206 204 211 210 214 219 224 229 221 203 214 220 211 228 225 234 231 209 235 255 255 269 254 263 281 290 293 307 297 313 272 147 168 140 136 141 148 135 129 62 24 38 67 66 51 43 55 55 58 51 136 149 140
201 198 200 200 207 206 202 203 197 197 197 199 198 200 196 198 197 198 202 200 207 211 212 205 204 208 206 209 209 210 213 212 209 204 207 211 215 222 230 224 217 208 213 217 216 224 218 225 240 220 211 240 237 253 276 263 281 283 294 302 291 295 255 205 184 159 135 155 172 141 144 179 136 70 94 89 80 70 63 68 55 43 23 50 134
205 202 199 198 203 202 203 204 204 201 200 198 199 200 202 199 201 205 203 206 210 212 213 203 210 210 206 214 211 212 214 215 213 207 209 215 214 218 228 223 212 213 217 213 223 219 221 215 239 227 210 222 239 238 254 265 263 278 287 286 301 281 267 302 164 141 160 168 189 171 170 173 148 128 106 103 102 88 76 67 61 51 36 41 99
208 204 201 203 202 203 201 204 203 200 203 201 201 200 197 201 204 208 214 218 219 219 211 211 215 214 211 213 212 214 216 216 214 208 207 214 216 219 224 221 208 213 216 219 226 223 222 220 222 240 214 216 222 227 233 246 270 274 280 296 343 325 294 246 144 169 179 186 191 172 149 164 156 141 123 111 105 101 92 80 72 58 42 41 53
208 204 204 202 204 202 199 202 204 199 198 199 190 197 194 198 205 218 230 221 219 220 220 220 215 220 218 212 213 216 216 216 216 209 209 212 217 218 221 220 211 208 215 217 223 216 216 217 227 224 235 246 238 244 229 215 255 261 287 302 271 274 317 169 167 186 193 185 180 170 164 149 152 153 141 127 110 108 104 98 83 77 58 47 50
210 206 204 207 203 200 191 206 200 195 192 191 193 193 198 204 219 218 222 212 214 215 222 221 221 224 220 219 218 217 216 215 217 211 214 215 219 222 221 226 214 211 215 221 219 219 215 214 223 211 222 239 259 219 215 148 217 303 333 306 300 271 229 187 194 172 180 194 182 168 142 149 165 168 170 141 125 119 122 114 112 99 86 70 40
213 207 209 208 204 200 202 205 194 198 199 196 194 197 199 200 198 210 210 212 210 211 225 222 223 224 221 222 222 220 217 216 213 214 218 214 220 221 221 224 214 218 223 227 228 222 214 215 206 238 210 217 242 200 196 129 302 218 274 319 322 315 309 198 189 182 149 134 151 191 171 164 172 177 161 143 138 139 138 140 134 121 110 106 103
206 207 212 206 206 206 209 202 200 198 202 199 195 202 200 204 200 206 200 218 219 216 225 227 216 221 223 223 222 221 221 221 215 211 215 218 221 221 225 224 223 218 224 230 222 224 213 213 202 212 229 225 235 226 179 188 213 129 118 24 290 347 325 348 328 172 144 134 138 173 187 185 184 178 170 162 164 165 166 161 149 140 137 127 123
207 212 210 209 208 211 208 204 204 200 201 202 202 203 199 201 207 200 202 201 206 209 220 225 219 215 226 219 222 219 217 223 219 215 216 220 219 223 226 224 226 216 220 230 221 226 212 214 207 220 207 238 216 243 195 199 172 138 277 216 231 134 306 291 272 309 138 152 161 170 169 208 185 167 164 188 188 174 181 177 174 165 159 161 174
209 210 206 207 209 209 208 204 202 201 203 200 200 194 186 194 197 202 167 221 255 215 217 234 222 222 226 219 222 209 216 220 218 218 216 222 222 225 225 228 226 221 218 229 229 224 215 210 205 209 204 219 239 230 232 196 208 210 169 88 344 323 225 241 41 286 113 138 186 162 178 181 194 191 193 208 188 189 181 183 192 187 171 172 182
213 214 207 209 208 210 207 205 204 203 204 201 194 188 192 190 184 195 208 210 222 213 220 224 215 218 224 224 213 207 214 220 218 219 219 220 225 224 227 228 226 223 217 226 231 224 217 206 205 206 217 218 229 215 237 225 216 215 219 218 174 194 197 246 119 273 316 217 154 164 179 189 175 203 217 204 200 203 188 192 189 194 189 184 185
218 212 208 210 209 210 205 202 203 205 200 197 188 188 196 201 201 205 207 209 220 229 227 227 220 223 217 219 218 203 209 213 219 217 219 218 221 223 223 224 225 222 217 220 226 224 220 213 199 203 216 213 204 234 226 226 200 255 234 237 220 190 156 140 223 87 316 288 186 176 194 183 184 197 207 210 206 197 199 192 194 195 198 193 188
216 207 211 208 207 210 204 202 203 202 198 191 188 192 198 202 206 212 214 219 219 231 214 220 212 206 210 217 210 212 205 208 213 214 217 217 217 223 220 222 222 222 212 219 225 224 219 214 201 207 211 204 205 222 235 215 210 222 201 216 215 193 171 162 167 205 199 188 248 277 319 182 187 211 210 208 203 201 195 196 194 197 201 200 194
212 208 208 207 209 207 204 200 202 200 197 190 192 196 202 202 205 208 219 225 227 234 208 204 208 203 221 212 211 212 209 209 210 212 213 215 213 218 219 222 222 223 213 224 225 216 214 215 210 207 209 212 208 218 225 227 219 232 187 224 222 219 217 220 194 154 189 216 243 196 205 245 215 233 222 218 219 207 200 195 192 192 195 197 196
212 211 213 208 205 196 200 198 206 200 196 194 195 199 202 202 207 211 218 226 221 229 197 216 213 198 223 218 215 212 211 213 212 215 214 213 216 212 218 222 222 222 213 222 221 217 218 221 219 216 216 219 216 216 220 228 224 234 222 216 204 222 231 234 212 220 288 218 214 208 203 187 206 230 201 212 216 216 212 203 194 194 195 193 192
213 205 203 197 195 196 198 201 208 199 193 198 195 201 199 203 212 213 218 225 220 214 218 228 212 209 224 219 213 215 211 218 209 218 214 214 218 215 216 221 222 218 217 220 222 220 220 219 220 219 218 219 223 221 227 231 230 226 222 214 211 199 205 212 212 200 202 205 223 235 216 203 206 220 225 208 207 213 213 209 205 205 201 195 183